Total_Precipitation_Accumulation
2.87 3.54 4.84 4.73 4.05 3.43 3.26 3.44 3.51 3.28 3.12 3.14 3.25 3.28 3.43 3.51 3.59 3.55 3.36 3.49 3.58 3.62 3.51 3.35 3.22 3.19 3.29 3.41 3.44 3.08 2.64 2.37 2.50 2.51 2.56 2.69 2.88 3.06 3.26 3.46 3.37 2.64 2.51
2.26 3.22 4.42 4.27 3.63 2.95 2.98 3.03 3.19 3.05 2.93 3.01 3.21 3.17 3.12 3.29 3.47 3.48 3.34 3.54 3.63 3.61 3.47 3.29 3.08 2.91 2.99 3.15 3.05 2.64 2.38 2.53 2.84 3.02 3.27 3.31 3.37 3.37 3.43 3.54 3.59 2.96 2.60
1.95 2.61 3.43 3.77 3.16 2.79 2.76 2.70 2.84 2.81 2.74 2.99 3.23 3.24 3.18 3.28 3.56 3.59 3.53 3.55 3.77 3.70 3.36 3.18 2.96 2.69 2.85 2.95 2.57 2.38 2.43 2.72 3.31 3.77 3.90 3.42 2.94 3.22 3.33 3.47 3.34 2.78 2.50
1.65 2.05 2.57 3.04 2.67 2.48 2.43 2.55 2.66 2.70 2.69 2.85 2.97 3.12 3.23 3.29 3.59 3.74 3.63 3.71 3.96 3.63 3.36 3.14 2.87 2.68 2.71 2.55 2.40 2.38 2.58 2.95 3.48 4.06 3.79 3.14 2.58 2.87 3.00 2.92 2.79 2.55 2.40
1.55 1.83 2.28 2.46 2.39 2.33 2.30 2.52 2.67 2.73 2.69 2.81 2.98 3.11 3.32 3.52 3.66 3.87 3.85 3.94 4.03 3.88 3.50 3.15 3.01 2.84 2.62 2.38 2.28 2.36 2.69 3.17 3.63 3.66 3.00 3.00 3.12 3.03 2.81 2.65 2.62 2.38 2.14
1.62 1.85 2.06 2.22 2.20 2.26 2.24 2.52 2.73 2.86 2.76 2.78 3.02 3.07 3.26 3.59 3.93 4.18 4.13 4.19 4.23 4.07 3.64 3.24 3.01 2.78 2.56 2.39 2.40 2.45 2.88 3.33 3.33 2.71 2.45 2.61 2.63 2.87 2.70 2.64 2.50 2.22 1.93
1.57 1.90 2.00 2.19 2.28 2.44 2.54 2.71 2.88 2.87 2.73 2.72 2.82 2.79 3.00 3.56 3.95 4.18 4.29 4.30 4.26 4.08 3.71 3.32 2.94 2.71 2.54 2.46 2.54 2.50 2.79 3.15 2.76 2.38 2.23 2.44 2.34 2.50 2.65 2.60 2.48 2.17 1.87
1.39 1.78 2.01 2.37 2.46 2.53 2.70 3.02 3.18 2.93 2.81 2.76 2.82 2.75 2.91 3.27 3.72 4.01 4.31 4.40 4.18 3.97 3.60 3.31 3.03 2.78 2.58 2.55 2.55 2.50 2.72 2.66 2.15 1.98 1.98 2.04 2.02 2.18 2.51 2.41 2.33 2.15 1.89
1.45 1.62 1.94 2.36 2.58 2.71 2.82 3.09 3.21 3.19 3.12 3.06 3.02 2.88 2.98 3.27 3.64 4.04 4.37 4.35 4.25 4.17 3.80 3.50 3.11 2.81 2.71 2.63 2.56 2.49 2.62 2.71 2.21 2.03 1.91 1.93 1.90 1.98 2.29 2.22 2.16 2.13 2.05
1.80 1.69 1.79 2.18 2.62 2.76 2.81 3.06 3.31 3.28 3.21 3.21 3.24 3.15 3.37 3.56 3.68 3.92 4.19 4.46 4.50 4.38 4.06 3.75 3.29 3.02 2.94 2.66 2.62 2.76 2.87 2.62 2.15 2.18 2.11 1.67 1.72 1.99 2.37 2.45 2.36 2.38 2.29
2.08 2.03 2.05 2.07 2.20 2.44 2.54 2.82 3.44 3.46 3.36 3.40 3.58 3.69 3.96 4.37 4.44 4.53 4.42 4.70 4.79 4.64 4.53 4.20 3.81 3.42 3.21 2.86 2.97 3.17 2.92 2.50 2.57 2.51 2.11 1.67 1.78 2.41 2.77 2.83 2.66 2.56 2.47
2.18 2.18 2.41 2.27 2.15 2.26 2.28 3.11 4.03 3.93 3.82 3.91 4.10 4.20 4.64 4.88 5.26 4.76 5.11 5.43 5.54 5.51 5.40 5.19 4.92 4.15 3.35 2.84 3.08 3.26 2.76 2.61 2.78 2.60 2.13 2.01 2.13 2.70 3.03 2.91 2.85 2.84 2.71
2.46 2.29 2.24 2.38 2.50 2.56 2.71 3.11 3.62 4.12 4.23 4.32 4.29 4.30 4.63 4.58 4.85 5.03 5.46 6.25 6.37 5.84 5.46 5.66 5.50 4.40 3.79 3.73 3.46 3.13 3.01 2.76 2.77 2.49 2.20 2.25 2.33 2.71 3.09 2.98 2.89 2.85 2.68
3.04 2.99 3.00 2.98 3.01 3.09 2.95 2.96 3.12 3.43 3.52 3.60 3.87 3.99 4.18 4.62 4.83 5.06 5.55 5.70 5.79 5.60 5.89 5.77 5.61 4.93 4.45 3.96 3.59 3.55 3.57 3.24 2.97 2.87 2.85 2.64 2.63 2.90 3.28 3.28 3.07 2.98 2.87
3.53 3.74 4.34 4.27 3.78 3.55 3.36 3.27 2.97 3.19 3.00 2.86 3.17 3.63 3.79 4.11 4.49 4.79 4.78 4.87 4.65 4.94 5.35 5.59 5.08 5.08 4.84 4.58 4.23 3.87 3.84 3.57 3.28 3.21 3.32 3.28 3.04 3.01 3.32 3.55 3.47 3.42 3.47
4.34 4.33 4.58 5.11 4.53 3.95 3.51 3.42 3.26 3.05 3.07 2.93 3.11 3.22 3.58 3.74 3.89 4.12 4.17 4.30 4.17 4.37 4.64 4.69 4.61 4.99 4.95 4.76 4.24 3.81 3.65 3.67 3.50 3.26 3.46 3.49 3.35 3.04 3.13 3.61 3.94 3.98 4.06
4.89 5.02 5.09 5.39 5.11 4.73 4.24 3.77 3.40 3.22 3.02 3.09 3.25 3.15 3.26 3.45 3.56 3.63 3.72 3.82 3.93 3.88 4.06 4.14 4.23 4.53 4.67 4.62 4.32 3.91 3.75 3.77 3.59 3.50 3.36 3.45 3.34 3.30 3.24 3.43 3.77 3.86 4.19
5.44 5.73 5.80 5.52 5.58 5.35 4.81 4.35 4.02 3.77 3.59 3.43 3.19 3.08 2.91 2.96 2.96 3.09 3.06 3.08 3.30 3.41 3.61 3.92 4.03 4.35 4.64 4.74 4.70 4.24 4.07 4.04 3.73 3.70 3.52 3.49 3.73 3.39 3.59 3.75 3.74 3.69 4.12
6.49 6.96 6.79 6.22 5.94 5.61 5.10 4.67 4.56 4.45 4.17 3.86 3.72 3.51 3.23 2.90 2.77 2.86 2.99 3.09 2.83 3.02 3.28 3.18 3.73 4.06 4.47 4.58 4.11 4.17 3.97 3.86 3.87 3.57 3.59 3.46 3.64 3.67 3.80 3.80 3.85 3.71 4.13
6.80 7.50 7.41 6.77 6.06 5.50 5.18 4.88 4.88 4.66 4.27 3.85 3.75 3.73 3.39 3.22 2.91 2.99 2.87 2.68 2.47 2.76 3.18 3.37 3.90 4.00 3.99 4.05 3.48 3.79 3.65 3.35 3.50 3.65 3.44 3.54 3.56 3.25 3.54 3.88 4.10 3.64 4.05
5.88 6.41 6.30 5.69 5.30 4.90 4.43 3.98 4.06 3.98 3.76 3.55 3.37 3.25 3.31 3.23 3.09 3.19 2.87 3.01 2.63 2.70 2.87 3.03 3.43 3.68 3.62 3.59 3.96 4.13 3.74 3.29 3.33 3.23 3.09 3.38 3.36 3.32 3.72 4.19 4.30 4.10 3.71
4.34 4.57 4.07 3.90 3.98 3.70 3.55 3.56 3.56 3.48 3.20 3.06 3.12 3.44 3.10 3.10 3.02 2.82 2.95 2.72 2.67 2.93 2.97 3.11 3.40 3.54 3.48 3.56 3.84 4.31 4.09 4.04 3.48 2.70 2.90 3.06 3.13 3.40 3.37 3.48 3.87 4.18 3.82
3.13 3.10 2.89 2.87 3.29 3.31 3.41 3.48 3.51 3.55 3.38 3.25 3.15 3.40 3.02 2.76 2.71 2.78 2.72 2.79 2.99 2.69 3.00 3.21 3.22 3.49 3.61 3.48 3.49 3.99 4.05 3.99 3.48 2.82 2.66 2.69 2.91 3.29 3.28 3.36 3.15 3.43 3.68
2.24 2.35 2.61 2.76 3.02 2.96 3.16 3.17 3.12 2.92 2.79 2.75 2.78 2.98 3.03 2.72 2.58 2.57 2.69 3.03 3.20 2.92 3.20 2.74 2.94 3.33 3.57 3.50 3.54 3.31 3.18 3.32 3.54 3.40 2.94 2.67 2.77 2.87 2.98 2.94 3.07 3.42 3.57
1.94 2.18 2.52 2.72 2.85 2.81 2.84 2.97 3.20 3.12 3.12 2.99 2.92 3.19 3.21 3.22 2.96 2.64 2.64 2.95 3.16 3.15 3.27 3.10 3.35 3.13 3.09 3.13 3.26 3.28 3.24 3.13 2.91 3.12 3.15 2.95 2.79 2.45 2.39 2.44 2.64 2.89 2.94
1.89 1.97 2.19 2.41 2.72 2.75 2.74 2.82 2.92 3.08 3.35 3.33 3.26 3.09 2.93 3.04 2.97 2.72 2.72 3.06 3.09 3.12 3.30 3.17 3.17 3.04 3.08 3.11 3.00 2.92 3.22 3.23 3.02 3.12 2.87 2.81 2.72 2.20 2.02 2.10 2.18 2.33 2.51